TimeEST,TemperatureF,Dew PointF,Humidity,Sea Level PressureIn,VisibilityMPH,Wind Direction,Wind SpeedMPH,Gust SpeedMPH,PrecipitationIn,Events,Conditions,WindDirDegrees,DateUTC
12:15 AM,35.6,28.4,75,29.78,10.0,West,4.6,-,N/A,,Scattered Clouds,280,2013-02-20 05:15:00
12:35 AM,35.6,28.4,75,29.79,10.0,West,8.1,-,N/A,,Mostly Cloudy,280,2013-02-20 05:35:00
1:15 AM,35.6,21.2,56,29.79,10.0,WNW,10.4,20.7,N/A,,Mostly Cloudy,290,2013-02-20 06:15:00
1:35 AM,35.6,21.2,56,29.80,10.0,WNW,10.4,20.7,N/A,,Mostly Cloudy,290,2013-02-20 06:35:00
1:55 AM,33.8,19.4,56,29.81,10.0,WNW,12.7,17.3,N/A,,Mostly Cloudy,290,2013-02-20 06:55:00
2:15 AM,33.8,21.2,60,29.81,10.0,West,10.4,19.6,N/A,,Scattered Clouds,270,2013-02-20 07:15:00
2:35 AM,33.8,19.4,56,29.81,10.0,WNW,10.4,17.3,N/A,,Clear,290,2013-02-20 07:35:00
2:55 AM,33.8,19.4,56,29.81,10.0,West,9.2,17.3,N/A,,Clear,280,2013-02-20 07:55:00
3:15 AM,32.0,19.4,60,29.81,10.0,West,8.1,-,N/A,,Scattered Clouds,280,2013-02-20 08:15:00
3:35 AM,32.0,21.2,64,29.81,10.0,WNW,6.9,-,N/A,,Overcast,290,2013-02-20 08:35:00
3:55 AM,32.0,19.4,60,29.81,10.0,West,5.8,19.6,N/A,,Overcast,280,2013-02-20 08:55:00
4:15 AM,32.0,21.2,64,29.83,10.0,West,8.1,-,N/A,,Overcast,270,2013-02-20 09:15:00
4:35 AM,32.0,17.6,55,29.83,10.0,WNW,15.0,26.5,N/A,,Mostly Cloudy,290,2013-02-20 09:35:00
4:55 AM,32.0,17.6,55,29.84,10.0,West,15.0,31.1,N/A,,Clear,280,2013-02-20 09:55:00
5:15 AM,32.0,17.6,55,29.85,10.0,WNW,9.2,18.4,N/A,,Clear,290,2013-02-20 10:15:00
5:35 AM,32.0,17.6,55,29.85,10.0,WNW,9.2,16.1,N/A,,Clear,290,2013-02-20 10:35:00
5:55 AM,32.0,17.6,55,29.86,10.0,WNW,9.2,-,N/A,,Clear,300,2013-02-20 10:55:00
6:15 AM,32.0,17.6,55,29.87,10.0,WNW,9.2,-,N/A,,Mostly Cloudy,290,2013-02-20 11:15:00
6:35 AM,32.0,19.4,60,29.87,10.0,WNW,9.2,17.3,N/A,,Mostly Cloudy,290,2013-02-20 11:35:00
7:15 AM,30.2,19.4,64,29.89,10.0,WNW,8.1,16.1,N/A,,Scattered Clouds,290,2013-02-20 12:15:00
7:35 AM,30.2,19.4,64,29.90,10.0,West,16.1,26.5,N/A,,Mostly Cloudy,280,2013-02-20 12:35:00
7:55 AM,30.2,15.8,55,29.91,10.0,WNW,18.4,31.1,N/A,,Clear,300,2013-02-20 12:55:00
8:15 AM,30.2,14.0,51,29.93,10.0,WNW,17.3,31.1,N/A,,Scattered Clouds,300,2013-02-20 13:15:00
9:15 AM,32.0,14.0,48,29.93,10.0,West,18.4,29.9,N/A,,Mostly Cloudy,280,2013-02-20 14:15:00
9:35 AM,32.0,14.0,48,29.93,10.0,NW,18.4,26.5,N/A,,Scattered Clouds,310,2013-02-20 14:35:00
10:15 AM,30.2,12.2,47,29.93,10.0,WNW,15.0,26.5,N/A,,Scattered Clouds,300,2013-02-20 15:15:00
10:35 AM,32.0,12.2,44,29.93,10.0,WNW,16.1,25.3,N/A,,Scattered Clouds,300,2013-02-20 15:35:00
10:55 AM,32.0,12.2,44,29.93,10.0,WNW,11.5,28.8,N/A,,Scattered Clouds,300,2013-02-20 15:55:00
11:15 AM,32.0,12.2,44,29.92,10.0,WNW,17.3,24.2,N/A,,Clear,300,2013-02-20 16:15:00
11:35 AM,32.0,14.0,48,29.92,10.0,WNW,9.2,25.3,N/A,,Scattered Clouds,300,2013-02-20 16:35:00
11:55 AM,32.0,12.2,44,29.92,10.0,WNW,10.4,21.9,N/A,,Scattered Clouds,290,2013-02-20 16:55:00
12:15 PM,32.0,12.2,44,29.91,10.0,WNW,17.3,25.3,N/A,,Scattered Clouds,290,2013-02-20 17:15:00
12:35 PM,32.0,12.2,44,29.91,10.0,NW,16.1,26.5,N/A,,Scattered Clouds,310,2013-02-20 17:35:00
12:55 PM,32.0,12.2,44,29.91,10.0,West,11.5,25.3,N/A,,Scattered Clouds,280,2013-02-20 17:55:00
1:15 PM,32.0,12.2,44,29.91,10.0,WNW,13.8,25.3,N/A,,Mostly Cloudy,290,2013-02-20 18:15:00
1:35 PM,32.0,12.2,44,29.91,10.0,WNW,13.8,23.0,N/A,,Mostly Cloudy,290,2013-02-20 18:35:00
1:55 PM,32.0,12.2,44,29.91,10.0,West,12.7,24.2,N/A,,Scattered Clouds,270,2013-02-20 18:55:00
2:15 PM,32.0,10.4,41,29.92,10.0,West,15.0,27.6,N/A,,Scattered Clouds,280,2013-02-20 19:15:00
2:35 PM,32.0,12.2,44,29.93,10.0,West,15.0,25.3,N/A,,Mostly Cloudy,280,2013-02-20 19:35:00
2:55 PM,32.0,12.2,44,29.93,10.0,West,15.0,27.6,N/A,,Scattered Clouds,280,2013-02-20 19:55:00
3:15 PM,32.0,12.2,44,29.94,10.0,West,11.5,26.5,N/A,,Scattered Clouds,280,2013-02-20 20:15:00
3:35 PM,32.0,12.2,44,29.94,10.0,West,16.1,23.0,N/A,,Scattered Clouds,260,2013-02-20 20:35:00
3:55 PM,32.0,12.2,44,29.95,10.0,West,17.3,24.2,N/A,,Scattered Clouds,280,2013-02-20 20:55:00
4:15 PM,32.0,12.2,44,29.96,10.0,West,13.8,24.2,N/A,,Scattered Clouds,270,2013-02-20 21:15:00
4:35 PM,32.0,12.2,44,29.96,10.0,WNW,15.0,26.5,N/A,,Mostly Cloudy,290,2013-02-20 21:35:00
4:55 PM,30.2,12.2,47,29.96,10.0,West,11.5,23.0,N/A,,Mostly Cloudy,280,2013-02-20 21:55:00
5:15 PM,30.2,10.4,44,29.97,10.0,West,13.8,25.3,N/A,,Scattered Clouds,280,2013-02-20 22:15:00
5:35 PM,30.2,10.4,44,29.98,10.0,West,11.5,20.7,N/A,,Clear,280,2013-02-20 22:35:00
5:55 PM,30.2,10.4,44,29.98,10.0,West,12.7,20.7,N/A,,Scattered Clouds,280,2013-02-20 22:55:00
6:15 PM,30.2,10.4,44,29.99,10.0,West,9.2,-,N/A,,Scattered Clouds,280,2013-02-20 23:15:00
6:35 PM,30.2,12.2,47,30.00,10.0,West,10.4,21.9,N/A,,Scattered Clouds,270,2013-02-20 23:35:00
6:55 PM,30.2,12.2,47,30.01,10.0,WNW,13.8,25.3,N/A,,Scattered Clouds,290,2013-02-20 23:55:00
7:15 PM,28.4,12.2,51,30.00,10.0,West,11.5,17.3,N/A,,Clear,280,2013-02-21 00:15:00
7:35 PM,28.4,12.2,51,30.01,10.0,WNW,17.3,24.2,N/A,,Scattered Clouds,290,2013-02-21 00:35:00
7:55 PM,28.4,12.2,51,30.02,10.0,West,9.2,19.6,N/A,,Clear,280,2013-02-21 00:55:00
8:15 PM,28.4,14.0,55,30.03,10.0,WNW,8.1,18.4,N/A,,Scattered Clouds,290,2013-02-21 01:15:00
8:35 PM,28.4,12.2,51,30.02,10.0,WNW,15.0,25.3,N/A,,Scattered Clouds,300,2013-02-21 01:35:00
8:55 PM,28.4,12.2,51,30.02,10.0,WNW,11.5,17.3,N/A,,Clear,290,2013-02-21 01:55:00
9:15 PM,28.4,12.2,51,30.02,10.0,West,8.1,16.1,N/A,,Clear,270,2013-02-21 02:15:00
9:35 PM,28.4,12.2,51,30.01,10.0,WNW,6.9,17.3,N/A,,Clear,290,2013-02-21 02:35:00
10:15 PM,28.4,12.2,51,30.03,10.0,WNW,11.5,18.4,N/A,,Clear,290,2013-02-21 03:15:00
10:35 PM,28.4,12.2,51,30.04,10.0,WNW,6.9,16.1,N/A,,Clear,290,2013-02-21 03:35:00
10:55 PM,28.4,12.2,51,30.04,10.0,WNW,12.7,18.4,N/A,,Clear,300,2013-02-21 03:55:00
11:15 PM,26.6,12.2,55,30.04,10.0,WNW,12.7,20.7,N/A,,Scattered Clouds,300,2013-02-21 04:15:00
11:35 PM,26.6,12.2,55,30.05,10.0,WNW,8.1,-,N/A,,Mostly Cloudy,290,2013-02-21 04:35:00
11:55 PM,26.6,12.2,55,30.04,10.0,WNW,9.2,23.0,N/A,,Mostly Cloudy,290,2013-02-21 04:55:00